Location: Presov
(49.0000°N, 21.2500°E)
Time: 12:18:15
(UTC+02:00)

ISS - Pass Details

Date: 07 July 2022
Orbit: 412 x 420 km, 51.6° (Epoch: 17 August)

Event Time Altitude Azimuth Distance (km) Brightness Sun altitude
Exits shadow 01:42:26 38° 245° (WSW) 658 -3.1 -17.0°
Maximum altitude 01:43:37 85° 159° (SSE) 425 -3.9 -17.0°
Drops below altitude 10° 01:46:59 10° 71° (ENE) 1,503 -0.5 -16.8°
Sets 01:49:09 0° 71° (ENE) 2,397 0.6 -16.7°
